Weather History for KDAG - November, 2012

Change the Weather History Date:

Tuesday, November 6, 2012

  Actual Average Record
Temperature  
Mean Temperature 70 °F -  
Max Temperature 84 °F 74 °F 88 °F (1980)
Min Temperature 55 °F 48 °F 33 °F (1959)
Cooling Degree Days 4    
Growing Degree Days 20 (Base 50)    
Moisture  
Dew Point 28 °F    
Average Humidity 23    
Maximum Humidity 30    
Minimum Humidity 14    
Precipitation  
Precipitation 0.00 in - - ()
Sea Level Pressure  
Sea Level Pressure 30.05 in    
Wind  
Wind Speed 8 mph (West)    
Max Wind Speed 12 mph    
Max Gust Speed -    
Visibility 10 miles    
Events      
Averages and records for this station are not official NWS values.
T = Trace of Precipitation, MM = Missing Value Source: NWS Daily Summary

Daily Weather History Graph

Daily Weather History Graph

Search for Another Location

Airport or City:

Trip Planner

Search our weather history database for the weather conditions in past years. The results will help you decide how hot, cold, wet, or windy it might be!

Date:

Astronomy

Nov. 06, 2012 Rise Set
Actual Time 6:13 AM PST 4:47 PM PST
Civil Twilight 5:46 AM PST 5:14 PM PST
Nautical Twilight 5:16 AM PST 5:44 PM PST
Astronomical Twilight 4:46 AM PST 6:14 PM PST
Moon 11:28 PM PST (11/6) 12:09 PM PST (11/6)
Length of Visible Light 11h 27m
Length of Day
10h 34m
Waning Gibbous, 52% of the Moon is Illuminated
Nov 6
Waning Gibbous
Nov 6
Last Quarter
Nov 13
New
Nov 20
First Quarter
Nov 28
Full

Hourly Weather History & Observations

Time (PST) Temp. Dew Point Humidity Pressure Visibility Wind Dir Wind Speed Gust Speed Precip Events Conditions
12:50 AM 62.1 °F 26.1 °F 25% 30.07 in 10.0 mi West 10.4 mph - N/A   Clear
1:50 AM 57.9 °F 26.1 °F 30% 30.08 in 10.0 mi West 6.9 mph - N/A   Clear
4:50 AM 55.9 °F 25.0 °F 30% 30.09 in 10.0 mi West 9.2 mph - N/A   Clear
6:50 AM 57.9 °F 26.1 °F 30% 30.12 in 10.0 mi West 10.4 mph - N/A   Clear
7:50 AM 62.1 °F 27.0 °F 26% 30.13 in 10.0 mi West 10.4 mph - N/A   Clear
8:50 AM 68.0 °F 27.0 °F 21% 30.12 in 10.0 mi West 11.5 mph - N/A   Clear
9:50 AM 73.0 °F 28.9 °F 20% 30.12 in 10.0 mi West 9.2 mph - N/A   Clear
11:50 AM 82.0 °F 32.0 °F 16% 30.06 in 10.0 mi East 5.8 mph - N/A   Clear
12:50 PM 82.9 °F 32.0 °F 16% 30.02 in 10.0 mi East 8.1 mph - N/A   Clear
2:50 PM 84.9 °F 30.9 °F 14% 30.00 in 10.0 mi ENE 4.6 mph - N/A   Clear
3:50 PM 84.0 °F 30.9 °F 15% 29.99 in 10.0 mi ENE 4.6 mph - N/A   Clear
4:50 PM 79.0 °F 30.9 °F 17% 29.99 in 10.0 mi East 3.5 mph - N/A   Clear
5:50 PM 75.0 °F 28.0 °F 18% 30.00 in 10.0 mi Calm Calm - N/A   Clear
6:50 PM 72.0 °F 27.0 °F 19% 30.00 in 10.0 mi SSW 3.5 mph - N/A   Clear
7:50 PM 66.0 °F 28.0 °F 24% 30.01 in 10.0 mi West 4.6 mph - N/A   Clear
8:50 PM 63.0 °F 27.0 °F 26% 30.02 in 10.0 mi West 3.5 mph - N/A   Clear
9:50 PM 60.1 °F 28.0 °F 30% 30.02 in 10.0 mi West 5.8 mph - N/A   Clear
10:50 PM 63.0 °F 28.0 °F 27% 30.02 in 10.0 mi West 11.5 mph - N/A   Clear
11:50 PM 63.0 °F 28.0 °F 27% 30.01 in 10.0 mi West 11.5 mph - N/A   Clear